Flag for Estonia Weather past 2 weeks in Tallinn, Estonia

Now
82 °F

Passing clouds.


Feels Like: 82 °F
Forecast: 60 / 81 °F
Wind: 8 mph from Northeast

Location: Tallinn

Current Time: Jul 25, 2014 at 5:00:09 PM

Latest Report: Jul 25, 2014 at 4:20 PM


Visibility: N/A

Pressure: 30.15 "Hg

Humidity: 45%

Dew point: 59 °F

Location of TallinnLocation

Historic Weather in Tallinn — Graph

°F

Tallinn temperature yesterday

Maximum temperature yesterday: 81 °F (at 11:50 AM)
Minimum temperature yesterday: 63 °F (at 4:20 AM)
Average temperature yesterday: 73 °F

Past Weeks' High & Low Weather Summary

 TemperatureHumidityPressure
High84 °F (Jul 25, 1:20 PM)100% (Jul 14, 5:50 AM)30.24 "Hg (Jul 14, 5:50 AM)
Low39 °F (Jul 17, 2:20 AM)35% (Jul 23, 4:20 PM)29.80 "Hg (Jul 13, 7:20 PM)
Average67 °F75%30.07 "Hg
* Reported Jul 10 3:20 PM — Jul 25 3:20 PM, Tallinn, Weather by CustomWeather, © 2014

Note: Actual official high and low records may vary slightly from our data, if they occured in-between our weather recording intervals... More about our weather records

Advertising

Tallinn weather history for previous 24 hours

 ConditionsComfort  
Time TempWeatherWind HumidityBarometerVisibility
3:20 PM
Jul 25
82 °FPassing clouds.8 mph45%30.15 "HgN/A
2:50 PM84 °FPassing clouds.7 mph43%30.15 "HgN/A
2:20 PM82 °FPassing clouds.8 mph45%30.15 "HgN/A
1:50 PM84 °FPassing clouds.6 mph37%30.18 "HgN/A
1:20 PM84 °FPassing clouds.6 mph37%30.18 "HgN/A
12:50 PM82 °FPassing clouds.6 mph40%30.18 "HgN/A
12:20 PM82 °FSunny.5 mph42%30.18 "Hg10 mi
11:50 AM81 °FSunny.2 mph42%30.18 "Hg10 mi
11:20 AM81 °FSunny.5 mph45%30.18 "Hg10 mi
10:50 AM79 °FSunny.3 mph51%30.18 "Hg10 mi
10:20 AM79 °FSunny.5 mph54%30.18 "Hg10 mi
9:50 AM77 °FSunny.6 mph61%30.18 "Hg10 mi
9:20 AM75 °FSunny.5 mph65%30.18 "Hg10 mi
8:50 AM73 °FPassing clouds.6 mph69%30.18 "HgN/A
8:20 AM72 °FSunny.5 mph69%30.18 "Hg10 mi
7:50 AM68 °FSunny.3 mph83%30.18 "Hg10 mi
7:20 AM66 °FSunny.3 mph88%30.18 "Hg10 mi
6:50 AM63 °FSunny.5 mph94%30.18 "Hg10 mi
6:20 AM61 °FSunny.5 mph94%30.18 "Hg10 mi
5:50 AM61 °FSunny.5 mph94%30.18 "Hg10 mi
5:20 AM61 °FFog.5 mph94%30.18 "HgN/A
4:50 AM59 °FClear.3 mph100%30.18 "Hg10 mi
4:20 AM61 °FClear.3 mph94%30.15 "Hg10 mi
3:50 AM61 °FClear.5 mph94%30.15 "Hg10 mi
3:20 AM61 °FClear.5 mph94%30.15 "Hg10 mi
2:50 AM63 °FClear.3 mph88%30.18 "Hg10 mi
2:20 AM63 °FClear.6 mph88%30.18 "Hg10 mi
1:50 AM63 °FClear.3 mph94%30.18 "Hg10 mi
1:20 AM63 °FClear.5 mph94%30.18 "Hg10 mi
12:50 AM64 °FClear.6 mph88%30.18 "Hg10 mi
12:20 AM66 °FClear.6 mph83%30.15 "Hg10 mi
11:50 PM
Jul 24
66 °FClear.5 mph88%30.15 "Hg10 mi
11:20 PM66 °FClear.5 mph88%30.15 "Hg10 mi
10:50 PM68 °FSunny.No wind88%30.15 "Hg10 mi
10:20 PM72 °FSunny.3 mph78%30.15 "Hg10 mi
9:50 PM73 °FSunny.5 mph69%30.15 "Hg10 mi
9:20 PM73 °FSunny.6 mph69%30.12 "Hg10 mi
8:50 PM75 °FSunny.8 mph65%30.12 "Hg10 mi
8:20 PM77 °FSunny.8 mph61%30.12 "Hg10 mi
7:50 PM77 °FSunny.7 mph61%30.12 "Hg10 mi
7:20 PM79 °FPassing clouds.8 mph58%30.12 "HgN/A
6:50 PM79 °FPassing clouds.8 mph54%30.12 "HgN/A
6:20 PM81 °FPassing clouds.7 mph51%30.12 "HgN/A
5:50 PM81 °FPassing clouds.7 mph48%30.12 "HgN/A
5:20 PM81 °FPassing clouds.8 mph48%30.12 "HgN/A
Weather by CustomWeather, © 2014

See weather overviewHow to use our weather pages